Year,Month,Day,Hour,Minute,Value (Times are PST for temperature in C)
2019,06,10,00,29,12.00
2019,06,10,00,30,12.00
2019,06,10,00,32,11.90
2019,06,10,00,33,11.90
2019,06,10,00,34,11.90
2019,06,10,00,35,11.90
2019,06,10,00,36,11.90
2019,06,10,00,37,11.90
2019,06,10,00,38,11.80
2019,06,10,00,39,11.80
2019,06,10,00,40,11.80
2019,06,10,00,41,11.80
2019,06,10,00,42,11.80
2019,06,10,00,43,11.80
2019,06,10,00,44,11.80
2019,06,10,00,45,11.80
2019,06,10,00,46,11.80
2019,06,10,00,47,11.80
2019,06,10,00,48,11.80
2019,06,10,00,49,11.80
2019,06,10,00,50,11.80
2019,06,10,00,51,11.80
2019,06,10,00,52,11.80
2019,06,10,00,53,11.80
2019,06,10,00,54,11.70
2019,06,10,00,55,11.70
2019,06,10,00,56,11.70
2019,06,10,00,57,11.70
2019,06,10,00,58,11.70
2019,06,10,00,59,11.70
2019,06,10,01,00,11.70
2019,06,10,01,01,11.70
2019,06,10,01,03,11.70
2019,06,10,01,04,11.70
2019,06,10,01,06,11.70
2019,06,10,01,07,11.70
2019,06,10,01,08,11.70
2019,06,10,01,09,11.70
2019,06,10,01,11,11.70
2019,06,10,01,12,11.70
2019,06,10,01,13,11.70
2019,06,10,01,14,11.70
2019,06,10,01,16,11.70
2019,06,10,01,17,11.60
2019,06,10,01,18,11.60
2019,06,10,01,19,11.70
2019,06,10,01,21,11.70
2019,06,10,01,22,11.70
2019,06,10,01,23,11.70
2019,06,10,01,24,11.70
2019,06,10,01,26,11.80
2019,06,10,01,27,11.80
2019,06,10,01,28,11.80
2019,06,10,01,29,11.80
2019,06,10,01,31,11.80
2019,06,10,01,32,11.80
2019,06,10,01,33,11.80
2019,06,10,01,34,11.80
2019,06,10,01,36,11.80
2019,06,10,01,37,11.80
2019,06,10,01,38,11.80
2019,06,10,01,39,11.80
2019,06,10,01,41,11.80
2019,06,10,01,42,11.80
2019,06,10,01,43,11.80
2019,06,10,01,44,11.80
2019,06,10,01,46,11.80
2019,06,10,01,47,11.80
2019,06,10,01,48,11.80
2019,06,10,01,49,11.80
2019,06,10,01,51,11.80
2019,06,10,01,52,11.80
2019,06,10,01,53,11.70
2019,06,10,01,54,11.70
2019,06,10,01,56,11.70
2019,06,10,01,57,11.70
2019,06,10,01,58,11.70
2019,06,10,01,59,11.70
2019,06,10,02,01,11.70
2019,06,10,02,02,11.70
2019,06,10,02,03,11.70
2019,06,10,02,04,11.70
2019,06,10,02,06,11.60
2019,06,10,02,07,11.60
2019,06,10,02,08,11.60
2019,06,10,02,09,11.60
2019,06,10,02,11,11.60
2019,06,10,02,12,11.70
2019,06,10,02,13,11.70
2019,06,10,02,14,11.70
2019,06,10,02,16,11.80
2019,06,10,02,17,11.80
2019,06,10,02,18,11.80
2019,06,10,02,19,11.80
2019,06,10,02,21,11.80
2019,06,10,02,22,11.80
2019,06,10,02,23,11.80
2019,06,10,02,24,11.80
2019,06,10,02,25,11.80
2019,06,10,02,26,11.80
2019,06,10,02,27,11.80
2019,06,10,02,28,11.80
2019,06,10,02,29,11.80
2019,06,10,02,30,11.80
2019,06,10,02,31,11.80
2019,06,10,02,32,11.80
2019,06,10,02,33,11.80
2019,06,10,02,34,11.80
2019,06,10,02,36,11.80
2019,06,10,02,37,11.80
2019,06,10,02,38,11.80
2019,06,10,02,39,11.80
2019,06,10,02,40,11.80
2019,06,10,02,41,11.80
2019,06,10,02,42,11.80
2019,06,10,02,43,11.70
2019,06,10,02,44,11.70
2019,06,10,02,45,11.70
2019,06,10,02,46,11.70
2019,06,10,02,47,11.70
2019,06,10,02,48,11.70
2019,06,10,02,49,11.70
2019,06,10,02,50,11.70
2019,06,10,02,51,11.70
2019,06,10,02,52,11.60
2019,06,10,02,53,11.60
2019,06,10,02,54,11.60
2019,06,10,02,55,11.60
2019,06,10,02,56,11.60
2019,06,10,02,57,11.60
2019,06,10,02,58,11.60
2019,06,10,02,59,11.60
2019,06,10,03,00,11.60
2019,06,10,03,01,11.60
2019,06,10,03,02,11.60
2019,06,10,03,03,11.60
2019,06,10,03,04,11.60
2019,06,10,03,05,11.60
2019,06,10,03,06,11.60
2019,06,10,03,08,11.60
2019,06,10,03,09,11.60
2019,06,10,03,10,11.60
2019,06,10,03,11,11.60
2019,06,10,03,12,11.60
2019,06,10,03,13,11.60
2019,06,10,03,14,11.60
2019,06,10,03,15,11.60
2019,06,10,03,16,11.60
2019,06,10,03,17,11.60
2019,06,10,03,18,11.60
2019,06,10,03,19,11.60
2019,06,10,03,20,11.60
2019,06,10,03,21,11.60
2019,06,10,03,22,11.60
2019,06,10,03,23,11.60
2019,06,10,03,24,11.60
2019,06,10,03,25,11.60
2019,06,10,03,26,11.60
2019,06,10,03,27,11.60
2019,06,10,03,28,11.60
2019,06,10,03,29,11.60
2019,06,10,03,30,11.60
2019,06,10,03,31,11.40
2019,06,10,03,32,11.40
2019,06,10,03,33,11.40
2019,06,10,03,34,11.40
2019,06,10,03,35,11.40
2019,06,10,03,36,11.40
2019,06,10,03,37,11.40
2019,06,10,03,38,11.40
2019,06,10,03,39,11.40
2019,06,10,03,40,11.40
2019,06,10,03,41,11.40
2019,06,10,03,42,11.40
2019,06,10,03,43,11.40
2019,06,10,03,44,11.40
2019,06,10,03,45,11.40
2019,06,10,03,46,11.40
2019,06,10,03,47,11.40
2019,06,10,03,48,11.40
2019,06,10,03,49,11.40
2019,06,10,03,50,11.40
2019,06,10,03,51,11.40
2019,06,10,03,52,11.40
2019,06,10,03,53,11.40
2019,06,10,03,54,11.40
2019,06,10,03,55,11.40
2019,06,10,03,56,11.30
2019,06,10,03,57,11.30
2019,06,10,03,58,11.30
2019,06,10,03,59,11.30
2019,06,10,04,00,11.30
2019,06,10,04,01,11.30
2019,06,10,04,02,11.30
2019,06,10,04,03,11.30
2019,06,10,04,04,11.30
2019,06,10,04,05,11.30
2019,06,10,04,06,11.30
2019,06,10,04,07,11.30
2019,06,10,04,08,11.30
2019,06,10,04,09,11.20
2019,06,10,04,10,11.20
2019,06,10,04,11,11.20
2019,06,10,04,12,11.20
2019,06,10,04,13,11.20
2019,06,10,04,14,11.20
2019,06,10,04,15,11.20
2019,06,10,04,16,11.10
2019,06,10,04,17,11.10
2019,06,10,04,18,11.10
2019,06,10,04,19,11.10
2019,06,10,04,20,11.10
2019,06,10,04,21,11.10
2019,06,10,04,22,11.10
2019,06,10,04,23,11.10
2019,06,10,04,24,11.10
2019,06,10,04,25,11.10
2019,06,10,04,26,11.10
2019,06,10,04,27,11.10
2019,06,10,04,28,11.10
2019,06,10,04,29,11.10
2019,06,10,04,30,10.90
2019,06,10,04,31,10.90
2019,06,10,04,32,10.90
2019,06,10,04,33,10.90
2019,06,10,04,34,10.90
2019,06,10,04,35,10.90
2019,06,10,04,36,10.90
2019,06,10,04,37,10.90
2019,06,10,04,38,10.90
2019,06,10,04,39,10.90
2019,06,10,04,40,10.90
2019,06,10,04,41,10.90
2019,06,10,04,42,10.90
2019,06,10,04,43,10.90
2019,06,10,04,44,10.90
2019,06,10,04,45,10.90
2019,06,10,04,46,10.90
2019,06,10,04,47,10.90
2019,06,10,04,48,10.90
2019,06,10,04,49,10.90
2019,06,10,04,50,10.90
2019,06,10,04,51,10.90
2019,06,10,04,52,10.90
2019,06,10,04,53,10.90
2019,06,10,04,54,10.90
2019,06,10,04,55,10.90
2019,06,10,04,56,10.90
2019,06,10,04,57,10.90
2019,06,10,04,58,10.90
2019,06,10,04,59,10.90
2019,06,10,05,00,10.90
2019,06,10,05,01,10.90
2019,06,10,05,02,10.90
2019,06,10,05,03,10.90
2019,06,10,05,04,10.90
2019,06,10,05,05,10.90
2019,06,10,05,06,10.90
2019,06,10,05,07,10.90
2019,06,10,05,08,10.90
2019,06,10,05,09,10.90
2019,06,10,05,10,10.90
2019,06,10,05,11,10.90
2019,06,10,05,12,10.90
2019,06,10,05,13,10.90
2019,06,10,05,14,10.90
2019,06,10,05,15,10.90
2019,06,10,05,16,10.90
2019,06,10,05,17,10.90
2019,06,10,05,18,10.90
2019,06,10,05,19,10.90
2019,06,10,05,21,10.90
2019,06,10,05,22,10.90
2019,06,10,05,23,10.90
2019,06,10,05,24,10.90
2019,06,10,05,26,10.90
2019,06,10,05,27,10.90
2019,06,10,05,28,10.90
2019,06,10,05,29,10.90
2019,06,10,05,31,10.90
2019,06,10,05,32,10.90
2019,06,10,05,33,10.90
2019,06,10,05,34,10.90
2019,06,10,05,36,10.90
2019,06,10,05,37,10.90
2019,06,10,05,38,10.90
2019,06,10,05,39,10.90
2019,06,10,05,41,10.90
2019,06,10,05,42,10.90
2019,06,10,05,43,10.90
2019,06,10,05,44,10.90
2019,06,10,05,46,10.90
2019,06,10,05,47,10.90
2019,06,10,05,48,10.90
2019,06,10,05,49,10.90
2019,06,10,05,51,10.90
2019,06,10,05,52,10.90
2019,06,10,05,53,10.90
2019,06,10,05,54,10.90
2019,06,10,05,56,10.90
2019,06,10,05,57,10.90
2019,06,10,05,58,10.90
2019,06,10,05,59,10.90
2019,06,10,06,01,10.90
2019,06,10,06,02,10.90
2019,06,10,06,03,10.90
2019,06,10,06,04,10.90
2019,06,10,06,06,11.10
2019,06,10,06,07,11.10
2019,06,10,06,08,11.10
2019,06,10,06,09,11.10
2019,06,10,06,11,11.10
2019,06,10,06,12,11.10
2019,06,10,06,13,11.10
2019,06,10,06,14,11.10
2019,06,10,06,16,11.20
2019,06,10,06,17,11.20
2019,06,10,06,18,11.20
2019,06,10,06,19,11.20
2019,06,10,06,21,11.30
2019,06,10,06,22,11.30
2019,06,10,06,23,11.30
2019,06,10,06,24,11.30
2019,06,10,06,26,11.40
2019,06,10,06,27,11.40
2019,06,10,06,28,11.40
2019,06,10,06,29,11.40
2019,06,10,06,30,11.40
2019,06,10,06,32,11.40
2019,06,10,06,33,11.40
2019,06,10,06,34,11.40
2019,06,10,06,36,11.60
2019,06,10,06,37,11.60
2019,06,10,06,38,11.60
2019,06,10,06,39,11.60
2019,06,10,06,41,11.60
2019,06,10,06,42,11.60
2019,06,10,06,43,11.60
2019,06,10,06,44,11.60
2019,06,10,06,46,11.60
2019,06,10,06,47,11.70
2019,06,10,06,48,11.70
2019,06,10,06,49,11.70
2019,06,10,06,50,11.70
2019,06,10,06,51,11.70
2019,06,10,06,52,11.80
2019,06,10,06,53,11.80
2019,06,10,06,54,11.80
2019,06,10,06,55,11.80
2019,06,10,06,56,11.80
2019,06,10,06,57,11.80
2019,06,10,06,58,11.80
2019,06,10,06,59,11.80
2019,06,10,07,00,11.80
2019,06,10,07,01,11.80
2019,06,10,07,02,11.80
2019,06,10,07,03,11.80
2019,06,10,07,04,11.80
2019,06,10,07,06,11.80
2019,06,10,07,07,11.90
2019,06,10,07,08,11.90
2019,06,10,07,09,11.90
2019,06,10,07,10,11.90
2019,06,10,07,11,12.00
2019,06,10,07,12,12.00
2019,06,10,07,13,12.10
2019,06,10,07,14,12.10
2019,06,10,07,15,12.10
2019,06,10,07,16,12.20
2019,06,10,07,17,12.20
2019,06,10,07,18,12.30
2019,06,10,07,19,12.30
2019,06,10,07,20,12.30
2019,06,10,07,21,12.30
2019,06,10,07,22,12.40
2019,06,10,07,23,12.40
2019,06,10,07,24,12.50
2019,06,10,07,25,12.50
2019,06,10,07,26,12.50
2019,06,10,07,27,12.60
2019,06,10,07,28,12.60
2019,06,10,07,29,12.70
2019,06,10,07,30,12.70
2019,06,10,07,31,12.70
2019,06,10,07,32,12.70
2019,06,10,07,33,12.80
2019,06,10,07,34,12.80
2019,06,10,07,35,12.80
2019,06,10,07,36,12.80
2019,06,10,07,37,12.80
2019,06,10,07,38,12.80
2019,06,10,07,39,12.80
2019,06,10,07,40,12.80
2019,06,10,07,41,12.80
2019,06,10,07,42,12.80
2019,06,10,07,43,12.70
2019,06,10,07,44,12.70
2019,06,10,07,45,12.70
2019,06,10,07,46,12.70
2019,06,10,07,47,12.80
2019,06,10,07,48,12.80
2019,06,10,07,49,12.80
2019,06,10,07,50,12.80
2019,06,10,07,51,12.80
2019,06,10,07,52,12.80
2019,06,10,07,53,12.80
2019,06,10,07,54,12.80
2019,06,10,07,55,12.80
2019,06,10,07,56,12.80
2019,06,10,07,57,12.80
2019,06,10,07,58,12.80
2019,06,10,07,59,12.80
2019,06,10,08,00,12.80
2019,06,10,08,01,12.80
2019,06,10,08,02,12.80
2019,06,10,08,03,12.80
2019,06,10,08,04,12.90
2019,06,10,08,05,12.90
2019,06,10,08,06,12.90
2019,06,10,08,07,12.90
2019,06,10,08,08,13.00
2019,06,10,08,09,13.00
2019,06,10,08,10,13.00
2019,06,10,08,11,13.00
2019,06,10,08,12,13.00
2019,06,10,08,13,13.00
2019,06,10,08,14,13.00
2019,06,10,08,15,13.00
2019,06,10,08,16,13.00
2019,06,10,08,17,13.00
2019,06,10,08,18,13.00
2019,06,10,08,19,13.00
2019,06,10,08,20,13.00
2019,06,10,08,21,13.00
2019,06,10,08,22,13.00
2019,06,10,08,23,13.00
2019,06,10,08,24,13.00
2019,06,10,08,25,13.00
2019,06,10,08,26,13.00
2019,06,10,08,27,13.00
2019,06,10,08,28,13.00
2019,06,10,08,29,13.00
2019,06,10,08,30,13.00
2019,06,10,08,31,13.00
2019,06,10,08,32,13.00
2019,06,10,08,33,13.00
2019,06,10,08,34,13.00
2019,06,10,08,35,13.00
2019,06,10,08,36,13.00
2019,06,10,08,37,13.00
2019,06,10,08,38,13.00
2019,06,10,08,39,13.10
2019,06,10,08,40,13.10
2019,06,10,08,41,13.10
2019,06,10,08,42,13.10
2019,06,10,08,43,13.10
2019,06,10,08,44,13.20
2019,06,10,08,45,13.20
2019,06,10,08,46,13.20
2019,06,10,08,47,13.20
2019,06,10,08,48,13.20
2019,06,10,08,49,13.20
2019,06,10,08,50,13.20
2019,06,10,08,51,13.20
2019,06,10,08,52,13.20
2019,06,10,08,53,13.30
2019,06,10,08,54,13.30
2019,06,10,08,55,13.30
2019,06,10,08,56,13.30
2019,06,10,08,57,13.30
2019,06,10,08,58,13.40
2019,06,10,08,59,13.40
2019,06,10,09,00,13.40
2019,06,10,09,01,13.50
2019,06,10,09,02,13.50
2019,06,10,09,03,13.50
2019,06,10,09,04,13.60
2019,06,10,09,05,13.60
2019,06,10,09,06,13.70
2019,06,10,09,07,13.70
2019,06,10,09,08,13.70
2019,06,10,09,09,13.70
2019,06,10,09,10,13.70
2019,06,10,09,11,13.70
2019,06,10,09,12,13.70
2019,06,10,09,13,13.70
2019,06,10,09,14,13.80
2019,06,10,09,15,13.80
2019,06,10,09,16,13.90
2019,06,10,09,17,13.90
2019,06,10,09,18,13.90
2019,06,10,09,19,13.90
2019,06,10,09,20,13.90
2019,06,10,09,21,13.90
2019,06,10,09,22,13.90
2019,06,10,09,23,13.90
2019,06,10,09,24,13.90
2019,06,10,09,25,13.90
2019,06,10,09,26,13.90
2019,06,10,09,27,14.00
2019,06,10,09,28,14.00
2019,06,10,09,29,14.00
2019,06,10,09,30,14.10
2019,06,10,09,31,14.10
2019,06,10,09,32,14.10
2019,06,10,09,33,14.10
2019,06,10,09,34,14.20
2019,06,10,09,35,14.10
2019,06,10,09,36,14.10
2019,06,10,09,37,14.10
2019,06,10,09,38,14.10
2019,06,10,09,39,14.10
2019,06,10,09,40,14.10
2019,06,10,09,41,14.10
2019,06,10,09,42,14.10
2019,06,10,09,43,14.10
2019,06,10,09,44,14.10
2019,06,10,09,45,14.00
2019,06,10,09,46,14.00
2019,06,10,09,47,14.00
2019,06,10,09,48,14.00
2019,06,10,09,49,14.00
2019,06,10,09,50,14.00
2019,06,10,09,51,14.00
2019,06,10,09,52,14.00
2019,06,10,09,53,14.00
2019,06,10,09,54,14.00
2019,06,10,09,55,14.00
2019,06,10,09,56,14.00
2019,06,10,09,57,14.10
2019,06,10,09,58,14.10
2019,06,10,09,59,14.10
2019,06,10,10,00,14.10
2019,06,10,10,01,14.10
2019,06,10,10,02,14.10
2019,06,10,10,03,14.10
2019,06,10,10,04,14.10
2019,06,10,10,05,14.10
2019,06,10,10,06,14.10
2019,06,10,10,07,14.10
2019,06,10,10,08,14.10
2019,06,10,10,09,14.00
2019,06,10,10,10,14.00
2019,06,10,10,11,14.00
2019,06,10,10,12,14.00
2019,06,10,10,13,13.90
2019,06,10,10,14,13.90
2019,06,10,10,15,13.90
2019,06,10,10,16,13.90
2019,06,10,10,17,13.90
2019,06,10,10,18,13.90
2019,06,10,10,19,13.90
2019,06,10,10,20,13.90
2019,06,10,10,21,13.90
2019,06,10,10,22,13.90
2019,06,10,10,23,13.90
2019,06,10,10,24,14.00
2019,06,10,10,25,14.00
2019,06,10,10,26,14.00
2019,06,10,10,27,14.00
2019,06,10,10,28,14.10
2019,06,10,10,29,14.10
2019,06,10,10,30,14.10
2019,06,10,10,31,14.20
2019,06,10,10,32,14.20
2019,06,10,10,33,14.20
2019,06,10,10,34,14.20
2019,06,10,10,35,14.20
2019,06,10,10,36,14.30
2019,06,10,10,37,14.40
2019,06,10,10,38,14.40
2019,06,10,10,39,14.50
2019,06,10,10,41,14.60
2019,06,10,10,42,14.70
2019,06,10,10,43,14.80
2019,06,10,10,44,14.80
2019,06,10,10,46,14.90
2019,06,10,10,47,15.00
2019,06,10,10,48,15.10
2019,06,10,10,49,15.20
2019,06,10,10,51,15.30
2019,06,10,10,52,15.30
2019,06,10,10,53,15.40
2019,06,10,10,54,15.50
2019,06,10,10,56,15.70
2019,06,10,10,57,15.80
2019,06,10,10,58,15.90
2019,06,10,10,59,16.10
2019,06,10,11,01,16.20
2019,06,10,11,02,16.30
2019,06,10,11,03,16.30
2019,06,10,11,04,16.40
2019,06,10,11,06,16.40
2019,06,10,11,07,16.60
2019,06,10,11,08,16.70
2019,06,10,11,09,16.70
2019,06,10,11,11,16.80
2019,06,10,11,12,16.80
2019,06,10,11,13,16.90
2019,06,10,11,14,16.90
2019,06,10,11,16,17.10
2019,06,10,11,17,17.10
2019,06,10,11,18,17.10
2019,06,10,11,19,17.20
2019,06,10,11,21,17.30
2019,06,10,11,22,17.30
2019,06,10,11,23,17.30
2019,06,10,11,24,17.40
2019,06,10,11,26,17.50
2019,06,10,11,27,17.60
2019,06,10,11,28,17.60
2019,06,10,11,29,17.70
2019,06,10,11,31,17.70
2019,06,10,11,32,17.70
2019,06,10,11,33,17.80
2019,06,10,11,34,17.80
2019,06,10,11,36,17.90
2019,06,10,11,37,18.10
2019,06,10,11,38,18.10
2019,06,10,11,39,18.10
2019,06,10,11,41,18.20
2019,06,10,11,42,18.20
2019,06,10,11,43,18.20
2019,06,10,11,44,18.20
2019,06,10,11,46,18.20
2019,06,10,11,47,18.20
2019,06,10,11,48,18.20
2019,06,10,11,49,18.20
2019,06,10,11,51,18.20
2019,06,10,11,52,18.20
2019,06,10,11,53,18.20
2019,06,10,11,54,18.20
2019,06,10,11,56,18.20
2019,06,10,11,57,18.20
2019,06,10,11,58,18.20
2019,06,10,11,59,18.20
2019,06,10,12,01,18.10
2019,06,10,12,02,18.10
2019,06,10,12,03,17.90
2019,06,10,12,04,17.90
2019,06,10,12,06,17.90
2019,06,10,12,07,17.90
2019,06,10,12,08,17.90
2019,06,10,12,09,17.90
2019,06,10,12,11,17.90
2019,06,10,12,12,17.90
2019,06,10,12,13,17.90
2019,06,10,12,14,17.90
2019,06,10,12,16,17.90
2019,06,10,12,17,17.90
2019,06,10,12,18,17.90
2019,06,10,12,19,18.10
2019,06,10,12,20,18.10
2019,06,10,12,21,18.20
2019,06,10,12,22,18.20
2019,06,10,12,23,18.20
2019,06,10,12,24,18.20
2019,06,10,12,25,18.20
2019,06,10,12,26,18.20
2019,06,10,12,27,18.20
2019,06,10,12,28,18.20
2019,06,10,12,29,18.20
2019,06,10,12,30,18.20
2019,06,10,12,32,18.20
2019,06,10,12,33,18.20
2019,06,10,12,34,18.20
2019,06,10,12,36,18.20
2019,06,10,12,37,18.20
2019,06,10,12,38,18.20
2019,06,10,12,39,18.20
2019,06,10,12,40,18.20
2019,06,10,12,41,18.10
2019,06,10,12,42,18.10
2019,06,10,12,43,17.90
2019,06,10,12,44,17.90
2019,06,10,12,45,17.90
2019,06,10,12,46,17.90
2019,06,10,12,47,17.90
2019,06,10,12,48,17.90
2019,06,10,12,49,17.80
2019,06,10,12,50,17.80
2019,06,10,12,51,17.80
2019,06,10,12,52,17.70
2019,06,10,12,53,17.70
2019,06,10,12,54,17.80
2019,06,10,12,55,17.80
2019,06,10,12,56,17.80
2019,06,10,12,57,17.90
2019,06,10,12,58,17.90
2019,06,10,12,59,17.90
2019,06,10,13,00,17.90
2019,06,10,13,01,17.90
2019,06,10,13,02,18.10
2019,06,10,13,03,18.10
2019,06,10,13,04,18.10
2019,06,10,13,05,18.20
2019,06,10,13,06,18.20
2019,06,10,13,07,18.20
2019,06,10,13,08,18.20
2019,06,10,13,09,18.20
2019,06,10,13,10,17.90
2019,06,10,13,11,17.90
2019,06,10,13,12,17.80
2019,06,10,13,13,17.70
2019,06,10,13,14,17.60
2019,06,10,13,15,17.50
2019,06,10,13,16,17.50
2019,06,10,13,17,17.50
2019,06,10,13,18,17.60
2019,06,10,13,19,17.60
2019,06,10,13,20,17.70
2019,06,10,13,21,17.70
2019,06,10,13,22,17.80
2019,06,10,13,23,17.90
2019,06,10,13,24,17.90
2019,06,10,13,25,17.90
2019,06,10,13,26,17.90
2019,06,10,13,27,17.90
2019,06,10,13,28,18.10
2019,06,10,13,29,18.10
2019,06,10,13,30,18.20
2019,06,10,13,31,18.10
2019,06,10,13,32,18.10
2019,06,10,13,33,18.10
2019,06,10,13,34,18.10
2019,06,10,13,35,17.90
2019,06,10,13,36,17.90
2019,06,10,13,37,17.90
2019,06,10,13,38,17.90
2019,06,10,13,39,17.90
2019,06,10,13,40,17.90
2019,06,10,13,41,17.90
2019,06,10,13,42,18.10
2019,06,10,13,43,18.20
2019,06,10,13,44,18.20
2019,06,10,13,45,18.20
2019,06,10,13,46,18.30
2019,06,10,13,47,18.30
2019,06,10,13,48,18.30
2019,06,10,13,49,18.30
2019,06,10,13,50,18.30
2019,06,10,13,51,18.30
2019,06,10,13,52,18.30
2019,06,10,13,53,18.40
2019,06,10,13,54,18.40
2019,06,10,13,55,18.50
2019,06,10,13,56,18.50
2019,06,10,13,57,18.50
2019,06,10,13,58,18.50
2019,06,10,13,59,18.50
2019,06,10,14,00,18.50
2019,06,10,14,01,18.50
2019,06,10,14,02,18.50
2019,06,10,14,03,18.40
2019,06,10,14,04,18.40
2019,06,10,14,05,18.30
2019,06,10,14,06,18.20
2019,06,10,14,07,18.20
2019,06,10,14,08,18.20
2019,06,10,14,09,18.20
2019,06,10,14,10,18.20
2019,06,10,14,11,18.20
2019,06,10,14,12,18.20
2019,06,10,14,13,18.20
2019,06,10,14,14,18.30
2019,06,10,14,15,18.30
2019,06,10,14,16,18.30
2019,06,10,14,17,18.30
2019,06,10,14,18,18.30
2019,06,10,14,19,18.20
2019,06,10,14,20,18.10
2019,06,10,14,21,18.10
2019,06,10,14,22,18.10
2019,06,10,14,23,17.90
2019,06,10,14,24,17.90
2019,06,10,14,25,17.90
2019,06,10,14,26,17.90
2019,06,10,14,27,17.90
2019,06,10,14,28,17.90
2019,06,10,14,29,17.90
2019,06,10,14,30,17.90
2019,06,10,14,31,18.10
2019,06,10,14,32,18.10
2019,06,10,14,33,18.20
2019,06,10,14,34,18.20
2019,06,10,14,35,18.20
2019,06,10,14,36,18.30
2019,06,10,14,37,18.40
2019,06,10,14,38,18.50
2019,06,10,14,39,18.60
2019,06,10,14,40,18.70
2019,06,10,14,41,18.80
2019,06,10,14,42,18.90
2019,06,10,14,43,18.90
2019,06,10,14,44,18.90
2019,06,10,14,45,19.10
2019,06,10,14,46,19.10
2019,06,10,14,47,19.10
2019,06,10,14,48,19.10
2019,06,10,14,49,19.10
2019,06,10,14,50,19.10
2019,06,10,14,51,19.20
2019,06,10,14,52,19.30
2019,06,10,14,53,19.30
2019,06,10,14,54,19.40
2019,06,10,14,55,19.40
2019,06,10,14,56,19.40
2019,06,10,14,57,19.30
2019,06,10,14,58,19.20
2019,06,10,14,59,19.10
2019,06,10,15,00,18.90
2019,06,10,15,01,18.90
2019,06,10,15,02,18.90
2019,06,10,15,03,18.90
2019,06,10,15,04,18.90
2019,06,10,15,05,18.90
2019,06,10,15,06,19.10
2019,06,10,15,07,19.10
2019,06,10,15,08,19.10
2019,06,10,15,09,19.10
2019,06,10,15,10,19.10
2019,06,10,15,11,19.10
2019,06,10,15,12,18.90
2019,06,10,15,13,18.90
2019,06,10,15,14,18.80
2019,06,10,15,15,18.70
2019,06,10,15,16,18.70
2019,06,10,15,17,18.60
2019,06,10,15,18,18.60
2019,06,10,15,19,18.50
2019,06,10,15,20,18.50
2019,06,10,15,21,18.50
2019,06,10,15,22,18.50
2019,06,10,15,23,18.40
2019,06,10,15,24,18.30
2019,06,10,15,25,18.30
2019,06,10,15,26,18.30
2019,06,10,15,27,18.30
2019,06,10,15,28,18.20
2019,06,10,15,29,18.20
2019,06,10,15,30,18.30
2019,06,10,15,31,18.30
2019,06,10,15,32,18.30
2019,06,10,15,33,18.30
2019,06,10,15,34,18.40
2019,06,10,15,35,18.40
2019,06,10,15,36,18.50
2019,06,10,15,37,18.60
2019,06,10,15,38,18.70
2019,06,10,15,39,18.80
2019,06,10,15,40,18.90
2019,06,10,15,41,18.90
2019,06,10,15,42,18.90
2019,06,10,15,43,18.90
2019,06,10,15,44,18.90
2019,06,10,15,45,18.90
2019,06,10,15,46,19.10
2019,06,10,15,47,19.10
2019,06,10,15,48,19.10
2019,06,10,15,49,19.10
2019,06,10,15,50,19.10
2019,06,10,15,51,18.90
2019,06,10,15,52,18.90
2019,06,10,15,53,18.70
2019,06,10,15,54,18.40
2019,06,10,15,55,18.30
2019,06,10,15,56,18.20
2019,06,10,15,57,18.10
2019,06,10,15,59,17.90
2019,06,10,16,00,17.90
2019,06,10,16,02,17.90
2019,06,10,16,03,17.90
2019,06,10,16,04,17.90
2019,06,10,16,06,17.90
2019,06,10,16,07,17.80
2019,06,10,16,08,17.80
2019,06,10,16,09,17.70
2019,06,10,16,11,17.60
2019,06,10,16,12,17.60
2019,06,10,16,13,17.50
2019,06,10,16,14,17.50
2019,06,10,16,16,17.60
2019,06,10,16,17,17.70
2019,06,10,16,18,17.70
2019,06,10,16,19,17.80
2019,06,10,16,21,17.90
2019,06,10,16,22,17.90
2019,06,10,16,23,17.90
2019,06,10,16,24,17.90
2019,06,10,16,29,17.70
2019,06,10,16,30,17.70
2019,06,10,16,31,17.70
2019,06,10,16,32,17.80
2019,06,10,16,33,17.80
2019,06,10,16,34,17.80
2019,06,10,16,35,17.90
2019,06,10,16,36,17.90
2019,06,10,16,37,17.90
2019,06,10,16,38,17.90
2019,06,10,16,39,17.80
2019,06,10,16,40,17.80
2019,06,10,16,41,17.80
2019,06,10,16,42,17.70
2019,06,10,16,43,17.70
2019,06,10,16,44,17.70
2019,06,10,16,45,17.70
2019,06,10,16,46,17.70
2019,06,10,16,47,17.70
2019,06,10,16,48,17.70
2019,06,10,16,49,17.60
2019,06,10,16,50,17.60
2019,06,10,16,51,17.50
2019,06,10,16,52,17.40
2019,06,10,16,53,17.30
2019,06,10,16,54,17.30
2019,06,10,16,56,17.30
2019,06,10,16,57,17.30
2019,06,10,16,58,17.30
2019,06,10,16,59,17.30
2019,06,10,17,01,17.30
2019,06,10,17,02,17.30
2019,06,10,17,03,17.30
2019,06,10,17,04,17.30
2019,06,10,17,06,17.30
2019,06,10,17,07,17.20
2019,06,10,17,08,17.00
2019,06,10,17,09,16.80
2019,06,10,17,11,16.70
2019,06,10,17,12,16.70
2019,06,10,17,13,16.60
2019,06,10,17,14,16.60
2019,06,10,17,16,16.40
2019,06,10,17,17,16.40
2019,06,10,17,18,16.40
2019,06,10,17,19,16.40
2019,06,10,17,21,16.40
2019,06,10,17,22,16.40
2019,06,10,17,23,16.40
2019,06,10,17,24,16.60
2019,06,10,17,26,16.40
2019,06,10,17,27,16.40
2019,06,10,17,28,16.40
2019,06,10,17,29,16.40
2019,06,10,17,31,16.30
2019,06,10,17,32,16.30
2019,06,10,17,33,16.30
2019,06,10,17,34,16.30
2019,06,10,17,36,16.10
2019,06,10,17,37,16.10
2019,06,10,17,38,16.20
2019,06,10,17,39,16.20
2019,06,10,17,41,16.20
2019,06,10,17,42,16.10
2019,06,10,17,43,16.10
2019,06,10,17,44,15.90
2019,06,10,17,46,15.80
2019,06,10,17,47,15.80
2019,06,10,17,48,15.80
2019,06,10,17,49,15.80
2019,06,10,17,51,15.80
2019,06,10,17,52,15.80
2019,06,10,17,53,15.90
2019,06,10,17,54,15.90
2019,06,10,17,56,16.10
2019,06,10,17,57,16.10
2019,06,10,17,58,16.10
2019,06,10,17,59,16.10
2019,06,10,18,01,16.10
2019,06,10,18,02,16.10
2019,06,10,18,03,16.10
2019,06,10,18,04,16.10
2019,06,10,18,06,16.10
2019,06,10,18,07,16.10
2019,06,10,18,08,16.10
2019,06,10,18,09,16.10
2019,06,10,18,11,16.10
2019,06,10,18,12,16.10
2019,06,10,18,13,16.10
2019,06,10,18,14,16.10
2019,06,10,18,16,16.10
2019,06,10,18,17,16.10
2019,06,10,18,18,15.90
2019,06,10,18,19,15.90
2019,06,10,18,21,15.90
2019,06,10,18,22,15.90
2019,06,10,18,23,15.90
2019,06,10,18,24,15.90
2019,06,10,18,25,15.90
2019,06,10,18,26,15.90
2019,06,10,18,27,15.90
2019,06,10,18,28,15.90
2019,06,10,18,29,15.80
2019,06,10,18,30,15.90
2019,06,10,18,32,16.10
2019,06,10,18,33,16.10
2019,06,10,18,34,16.10
2019,06,10,18,36,16.20
2019,06,10,18,37,16.20
2019,06,10,18,38,16.30
2019,06,10,18,39,16.30
2019,06,10,18,40,16.30
2019,06,10,18,41,16.40
2019,06,10,18,42,16.40
2019,06,10,18,43,16.40
2019,06,10,18,44,16.40
2019,06,10,18,45,16.40
2019,06,10,18,46,16.40
2019,06,10,18,47,16.40
2019,06,10,18,48,16.40
2019,06,10,18,49,16.40
2019,06,10,18,50,16.40
2019,06,10,18,51,16.40
2019,06,10,18,52,16.40
2019,06,10,18,53,16.40
2019,06,10,18,54,16.40
2019,06,10,18,56,16.60
2019,06,10,18,57,16.60
2019,06,10,18,58,16.70
2019,06,10,18,59,16.70
2019,06,10,19,00,16.80
2019,06,10,19,01,16.90
2019,06,10,19,02,16.90
2019,06,10,19,03,16.90
2019,06,10,19,04,17.00
2019,06,10,19,05,17.00
2019,06,10,19,06,17.10
2019,06,10,19,07,17.10
2019,06,10,19,08,17.20
2019,06,10,19,09,17.20
2019,06,10,19,10,17.30
2019,06,10,19,11,17.30
2019,06,10,19,12,17.30
2019,06,10,19,13,17.30
2019,06,10,19,14,17.40
2019,06,10,19,15,17.40
2019,06,10,19,16,17.40
2019,06,10,19,17,17.50
2019,06,10,19,18,17.50
2019,06,10,19,19,17.60
2019,06,10,19,20,17.60